Weather in Lazhborovitsa

Russia / Kostroma Oblast     59°12′21″N   46°51′59″E
temp.,
°C
wind,
m/s
gust,
m/s
humid.,
%
clouds,
%
prec.,
mm/h
press.,
hPa
HPBL,
m
20 april, tue
tue2000:00−1ese22780 0.0 103531
03:00−2ese22780 0.0 103533
06:00−1se25720 0.0 1035123
09:00+6se35390 0.0 10341022
12:00+8se45340 0.0 10331357
15:00+8se45370 0.0 10311271
18:00+5se37555 0.0 1030256
21:00+1ese3107676 0.0 1029201
21 april, wed
wed2100:000ese3127546 0.0 1028268
03:000ese41468100 0.0 1027339
06:00+2ese51558100 0.0 1024669
09:00+6se71747100 0.0 10221061
12:00+6se71652100 0.1 10201176
15:00+1se71795100 2.5 1019918
18:00+2se71693100 2.9 1017992
21:00+1se61596100 3.0 1016894
22 april, thu
thu2200:00+1sse51397100 0.3 1015817
03:00+1sse51397100 0.9 1014732
06:00+2s51197100 1.6 1015721
09:00+3ssw41097100 2.1 1017805
12:00+5ssw41090100 0.1 1018792
15:00+8ssw3779100 0.4 1019953
18:00+7s378873 0.4 1019433
21:00+5sse389575 2.3 1020329
23 april, fri
fri2300:00+3s129982 0.0 102036
03:00+4s1399100 0.1 102192
06:00+4ssw249724 0.0 1022160
09:00+8ssw347622 0.0 1023698
12:00+11ssw34625 0.0 10231019
15:00+13s345730 0.0 10221445
18:00+10s267699 0.0 1022209
21:00+8sse288245 0.0 1023193
24 april, sat
sat2400:00+6se310905 0.0 1022213
03:00+6se3991100 0.0 1022270
06:00+5se4109099 0.0 1021334
09:00+8se498096 0.0 1020569
12:00+11ese455999 0.0 10181426
15:00+9ese4667100 0.0 10171020
18:00+8ese4871100 0.0 1016801
21:00+6e3878100 0.0 1014363